Regional Weather Roundup
Issued by NWS Green Bay, WI

Home | Current Version | Previous Version | Graphics & Text | Print | Product List | Glossary Off
Versions: 1 2 3 4 5 6 7 8 9 10 11 12 13 14 15 16 17 18 19 20 21 22 23 24 25 26 27 28 29 30 31 32 33 34 35 36 37 38 39 40 41 42 43 44 45 46 47 48 49 50

000
ASUS43 KGRB 011459
RWRGRB

NORTH-CENTRAL AND NORTHEAST WISCONSIN REGIONAL WEATHER ROUNDUP
NATIONAL WEATHER SERVICE GREEN BAY WI
1000 AM CDT WED OCT 01 2014

WIZ005-009-010>012-018-019-011600-
NORTH CENTRAL WISCONSIN

CITY           SKY/WX    TMP DP  RH WIND       PRES   REMARKS
IRONWOOD       NOT AVBL
MANITOWISH WTR NOT AVBL
ARBOR VITAE    NOT AVBL
EAGLE RIVER    NOT AVBL
LAND O LAKES   NOT AVBL
RHINELANDER    CLOUDY    46  44  93 S10       30.00S
PHILLIPS       CLOUDY    48  44  87 SE14      29.94F
ANTIGO         NOT AVBL
TOMAHAWK       NOT AVBL
MERRILL        NOT AVBL
$$

WIZ013-073-011600-
NORTHEAST WISCONSIN

CITY           SKY/WX    TMP DP  RH WIND       PRES   REMARKS
IRON MOUNTAIN  CLOUDY    50  48  93 S8        30.01S FOG
MARINETTE      NOT AVBL
$$

WIZ017-030-035>037-045-011600-
CENTRAL WISCONSIN

CITY           SKY/WX    TMP DP  RH WIND       PRES   REMARKS
MEDFORD        NOT AVBL
WAUSAU         CLOUDY    51  47  86 SE9       29.97F
MOSINEE        CLOUDY    50  50 100 SE9       29.99S
MARSHFIELD     CLOUDY    52  47  83 SE13      29.96F
WISC RAPIDS    CLOUDY    54  47  77 SE13G18   29.98F
STEVENS POINT  NOT AVBL
WAUPACA        NOT AVBL
SHAWANO        CLOUDY    53  51  93 E5        30.03S FOG
CLINTONVILLE   CLOUDY    52  50  93 E5        30.02R FOG
$$

WIZ038-039-048-051-011600-
FOX VALLEY

CITY           SKY/WX    TMP DP  RH WIND       PRES   REMARKS
NWS GREEN BAY  CLOUDY    54  52  93 SE8       30.03R
APPLETON       CLOUDY    55  52  88 SE8       30.02R
OSHKOSH        PTSUNNY   57  51  80 S10       30.01S
FOND DU LAC    PTSUNNY   57  50  77 S13       30.01S
$$

WIZ022-050-052-011600-
EAST CENTRAL WISCONSIN

CITY           SKY/WX    TMP DP  RH WIND       PRES   REMARKS
STURGEON BAY   NOT AVBL
MANITOWOC      NOT AVBL
SHEBOYGAN      CLOUDY    57  50  77 S8        30.03R
$$

LMZ563-521-522-541>543-011600-
LAKESHORE

STATION/POSITION TIME  TEMP    WIND        PRES    VSBY  WAVE
                       AIR SEA DIR/SP/G                  HT/PER
                 (UTC) (F)     (DEG/KT/KT) (MB)    (MI)  (FT/S)
SHEBOYGAN LKSHOR 1400   56 54  140/ 13/ 14 1017.0R
KEWAUNEE LKSHORE 1400   54     140/  9/ 13 1016.3R
NORTHPORT PIER   1400   56     170/  4/ 10 1017.6R
N MID LAKE BUOY  1400   55 58  180/  8/ 10 1018.0R         1/ 3
SISTER BAY LKSHO 1400          190/ 10/ 12   N/A
CHAMBERS ISLAND  1400   54     150/  4/  8 1017.3S
MENOMINEE LKSHOR 1400   53     160/ 10/ 11 1017.5R
$$


USA.gov is the U.S. government's official web portal to all federal, state and local government web resources and services.